Probability
0 0 0 0 0 0 0 0 0 0 0 0 0 1 3 4 3 3 3 1 0 0 0 0 0 0 0 0 0 0 0 0 0 0 0 0 0 0
0 0 0 0 0 0 0 0 0 0 0 0 0 1 2 2 2 4 3 1 0 0 0 0 0 0 0 0 0 0 0 0 0 0 0 0 0 0
0 0 0 0 0 0 0 0 0 0 0 0 0 1 1 2 3 3 2 1 0 0 0 0 0 0 0 0 0 0 0 0 0 0 0 0 0 0
0 0 0 0 0 0 0 0 0 0 0 0 0 0 1 2 2 1 1 0 0 0 0 0 0 0 0 0 0 0 0 0 0 0 0 0 0 0
0 0 0 0 0 0 0 0 0 0 0 0 0 0 0 1 1 0 0 0 0 0 0 0 0 0 0 0 0 0 0 0 0 0 0 0 0 0
0 0 0 0 0 0 0 0 0 0 0 0 0 0 0 0 0 0 0 0 0 0 0 0 0 0 0 0 0 0 0 0 0 0 0 0 0 0
0 0 0 0 0 0 0 0 0 0 0 0 0 0 0 0 0 0 0 0 0 0 0 0 0 0 0 0 0 0 0 0 0 0 0 0 0 0
0 0 0 0 0 0 0 0 0 0 0 0 0 0 0 0 0 0 0 0 0 0 0 0 0 0 0 0 0 0 0 0 0 0 0 0 0 0
0 0 0 0 0 0 0 0 0 0 0 0 0 0 0 0 0 0 0 0 0 0 0 0 0 0 0 0 0 0 0 0 0 0 0 0 0 0
0 0 0 0 0 0 0 0 0 0 0 0 0 0 0 0 0 0 0 0 0 0 0 0 0 0 0 0 0 0 0 0 0 0 0 0 0 0
0 0 0 0 0 0 0 0 0 0 0 0 0 0 0 0 0 0 1 1 1 0 0 0 0 0 0 0 0 0 0 0 0 0 0 0 0 0
0 0 0 0 0 0 0 0 0 0 0 0 0 0 0 0 0 0 1 2 1 0 0 0 0 0 0 0 0 0 0 0 0 0 0 0 0 0
0 0 0 0 0 0 0 0 0 0 0 0 0 0 0 0 0 0 1 1 1 0 0 0 0 0 0 0 0 0 0 0 0 0 0 0 0 0
0 0 0 0 0 0 0 0 0 0 0 0 0 0 0 0 0 0 1 1 0 0 0 0 0 0 0 0 0 0 0 0 0 0 0 0 0 0
0 0 0 0 0 0 0 0 0 0 0 0 0 0 0 0 0 0 0 1 0 0 0 0 0 0 0 0 0 0 0 0 0 0 0 0 0 0
0 0 0 0 0 0 0 0 0 0 0 0 0 0 0 0 0 0 0 0 0 0 0 0 0 0 0 0 0 0 0 0 0 0 0 0 0 0
0 0 0 0 0 0 0 0 0 0 0 0 0 0 0 0 0 0 0 0 0 0 0 0 0 0 0 0 0 0 0 0 0 0 0 0 0 0
0 0 0 0 0 0 0 0 0 0 0 0 0 0 0 0 0 0 0 0 0 0 0 0 0 0 0 0 0 0 0 0 0 0 0 0 0 0
0 0 0 0 0 0 0 0 0 0 0 0 0 0 0 0 0 0 0 0 0 0 0 0 0 0 0 0 0 0 0 0 0 0 0 0 0 0
0 0 0 0 0 0 0 0 0 0 0 0 0 0 0 0 0 0 0 0 0 0 0 0 0 0 0 0 0 0 0 0 0 0 0 0 0 0
0 0 0 0 0 0 0 0 0 0 0 0 0 0 0 0 0 0 0 0 0 0 0 0 0 0 0 0 0 0 0 0 0 0 0 0 0 0
0 0 0 0 0 0 0 0 0 0 0 0 0 0 0 0 0 0 0 0 0 0 0 0 0 0 0 0 0 0 0 0 0 0 0 0 0 0
0 0 0 0 0 0 0 0 0 0 0 0 0 0 0 0 0 0 0 0 0 0 0 0 0 0 0 0 0 0 0 0 0 0 0 0 0 0
Wind_Speed
6 6 5 4 4 4 3 3 3 3 3 3 2 2 3 3 6 7 7 11 14 14 13 13 13 13 13 12 12 12 12 11 11 11 11 12 12 13
5 6 6 4 4 4 4 4 4 4 4 2 2 2 2 3 4 5 6 11 12 13 12 12 12 12 12 11 11 10 10 10 9 9 9 9 9 9
6 7 7 6 5 4 4 3 4 4 5 3 2 1 2 3 3 3 4 6 6 11 12 12 11 11 11 10 10 9 8 8 8 7 7 7 7 7
8 7 8 6 7 5 4 4 4 4 4 4 2 1 2 3 4 5 4 4 5 9 11 12 11 11 11 10 9 8 7 7 7 7 6 6 6 6
8 8 9 8 8 6 6 5 4 4 3 3 3 2 1 2 4 4 5 4 5 7 10 10 11 11 10 10 9 9 8 7 7 6 6 5 5 4
8 9 9 9 9 8 7 6 5 4 4 3 3 2 2 3 4 5 4 4 5 5 6 7 9 10 10 10 9 9 8 7 7 6 5 5 4 3
8 8 9 11 12 9 7 7 6 5 4 4 3 2 2 3 4 4 5 5 4 4 5 5 6 6 6 8 9 9 8 7 7 6 6 5 4 3
9 8 9 11 12 13 12 11 10 8 7 5 4 4 4 3 3 5 6 6 5 4 5 5 4 5 4 4 6 8 8 7 7 6 6 5 5 4
9 8 7 7 9 8 9 11 12 12 11 7 6 5 5 5 5 6 6 6 4 7 6 5 4 4 4 4 7 7 7 7 7 6 6 6 5 5
9 9 8 7 7 8 8 8 8 9 10 8 7 6 5 6 6 5 6 5 5 5 4 4 4 4 4 4 6 7 7 7 7 8 7 7 7 7
8 9 9 8 9 10 8 8 7 6 7 8 7 6 6 8 7 5 6 7 5 4 2 4 5 4 3 3 4 7 7 8 8 9 9 9 9 8
6 7 10 10 9 11 8 8 8 6 6 6 5 4 4 6 9 7 7 7 6 4 4 5 5 5 4 3 3 4 5 6 8 9 9 9 8 6
4 4 5 9 11 11 10 8 8 7 6 6 5 4 4 4 5 5 6 6 6 4 6 6 5 4 4 4 3 3 4 4 4 5 7 8 7 5
5 4 4 8 10 10 8 7 9 8 5 4 4 4 4 4 4 4 5 4 3 4 8 8 6 6 6 5 4 4 4 4 4 5 5 7 7 7
4 6 6 7 8 7 9 9 8 6 6 5 5 5 4 4 4 3 3 3 3 4 7 6 6 7 5 6 6 6 5 4 4 5 5 5 4 4
3 2 3 5 4 5 6 6 5 6 6 6 5 4 4 4 4 4 4 4 4 3 4 6 8 9 5 6 6 7 6 7 7 6 6 4 4 4
1 1 1 2 3 3 3 4 4 5 5 5 5 5 4 4 4 4 3 4 4 4 5 4 4 4 4 6 6 7 7 6 7 7 6 5 4 4
2 2 2 3 3 4 4 4 4 5 5 5 5 5 5 5 5 4 4 5 5 5 5 6 6 5 3 1 3 8 7 6 7 8 6 6 5 5
2 2 3 3 3 3 4 4 4 4 5 5 6 5 5 5 5 6 5 5 5 5 5 6 7 7 7 5 4 5 7 7 8 7 6 5 5 6
2 2 3 3 3 4 4 4 4 4 4 5 5 5 6 6 6 6 6 6 6 5 6 6 7 7 7 6 5 5 8 9 9 8 7 4 3 4
2 2 3 3 3 4 4 4 5 5 5 5 5 6 6 6 6 6 6 8 7 6 7 7 6 7 4 5 5 4 5 7 7 7 8 7 6 5
2 3 3 3 3 4 4 4 4 5 5 5 5 6 6 6 7 8 7 7 7 7 7 5 7 7 5 6 7 7 7 6 6 7 7 6 6 8
2 2 2 3 3 4 4 5 6 5 5 5 6 6 6 6 6 7 7 7 7 7 7 6 6 6 6 6 7 7 10 9 7 7 5 1 2 4
Wind_Direction
229 226 227 229 223 222 221 217 223 252 260 251 251 238 207 197 192 192 192 188 187 187 187 189 189 188 187 188 192 196 200 204 208 211 212 215 220 224
228 227 229 229 225 222 220 223 219 228 254 252 247 260 227 201 177 181 179 171 175 173 173 173 175 175 176 178 182 186 189 192 196 200 205 210 214 220
238 229 231 224 221 222 218 218 221 218 240 252 251 246 214 180 155 158 157 161 163 162 162 161 159 159 159 160 162 166 171 174 178 182 187 195 204 215
240 233 235 228 222 220 214 218 221 221 227 236 234 229 207 175 158 149 143 147 147 150 150 148 147 147 147 147 150 153 157 162 168 172 176 185 200 211
239 232 232 224 223 219 216 217 219 223 221 221 224 216 205 164 147 135 131 126 130 137 138 139 140 139 138 139 142 147 150 153 158 164 168 176 187 200
241 235 232 224 221 217 216 215 211 212 212 212 210 208 198 174 163 152 145 137 131 131 127 129 132 131 133 135 138 143 146 148 148 151 155 160 169 179
246 238 234 230 225 216 213 207 202 201 203 205 205 195 194 181 176 161 155 140 124 132 133 134 133 131 131 133 134 139 143 145 145 148 150 151 154 162
247 241 237 237 233 224 218 208 199 195 198 199 202 199 200 193 175 165 156 156 156 152 142 138 140 133 129 130 132 138 142 142 142 142 142 143 147 150
241 237 237 230 220 220 219 216 210 205 197 191 197 202 191 187 177 172 173 165 152 154 143 137 138 130 122 119 130 135 138 139 139 138 137 134 132 131
239 234 231 232 221 210 212 214 212 210 206 199 197 199 194 183 181 174 162 134 110 136 141 137 142 133 124 124 129 133 134 135 135 134 132 126 119 111
245 236 228 227 221 205 204 208 210 214 211 201 192 192 187 178 168 149 152 152 143 149 146 131 135 126 125 130 129 131 130 130 129 128 125 122 118 110
250 240 227 223 220 203 202 202 205 203 187 183 183 185 184 184 178 173 166 164 150 155 164 141 140 141 138 134 135 135 129 123 124 125 127 127 127 120
248 242 228 213 213 205 199 206 207 189 182 177 173 172 174 177 182 182 175 168 163 155 161 147 145 148 139 136 140 147 149 144 135 125 124 123 122 124
244 241 228 210 209 205 198 203 192 172 165 166 171 177 181 180 178 181 181 178 167 159 163 156 148 158 146 143 149 152 152 150 145 138 133 122 106 93
247 243 231 214 205 202 204 191 178 173 167 173 185 189 189 176 156 156 157 147 133 146 160 164 150 152 152 150 149 155 157 160 158 150 147 147 146 140
252 251 217 194 186 176 178 184 183 182 179 183 190 183 162 157 157 155 153 152 146 146 164 169 162 158 152 149 151 160 164 162 164 160 150 148 149 154
214 181 157 157 167 161 161 168 174 177 180 178 174 165 162 166 162 155 152 155 162 159 157 156 154 142 142 149 154 159 157 157 163 160 158 157 163 167
179 185 187 184 185 178 169 166 177 184 183 177 173 172 172 176 169 163 165 170 172 168 164 159 149 136 123 99 154 160 161 160 159 162 163 165 170 174
186 197 198 194 192 182 175 174 181 185 179 179 181 180 178 178 173 172 175 178 181 178 173 169 168 166 170 176 174 177 165 159 158 164 170 171 175 174
210 203 198 195 194 188 184 183 182 175 177 183 184 182 181 180 178 178 182 185 181 177 176 178 183 185 185 174 161 167 174 164 165 168 163 147 119 122
225 215 204 198 197 193 190 187 186 185 183 180 186 186 182 183 186 186 188 187 184 184 187 192 190 172 146 132 134 142 164 175 164 162 158 155 154 161
239 223 212 206 202 198 192 187 185 187 186 188 189 188 184 187 192 191 189 186 190 191 191 182 165 164 173 177 172 160 151 152 144 135 146 155 166 178
245 229 213 206 203 200 196 195 195 194 193 192 190 187 186 190 193 193 191 190 188 184 178 173 171 177 183 178 170 159 154 155 154 154 155 117 125 128